Location: Buchloe
(48.0161°N, 10.7316°E)
Time: 10:18:43
(UTC+02:00)

ISS - Pass Details

Date: 22 May 2018
Orbit: 402 x 407 km, 51.6° (Epoch: 23 May)

Event Time Altitude Azimuth Distance (km) Brightness Sun altitude
Rises 03:04:26 0° 292° (WNW) 2,319 0.0 -17.3°
Reaches altitude 10° 03:06:30 10° 293° (WNW) 1,458 -1.1 -17.1°
Maximum altitude 03:09:47 89° 8° (N) 407 -3.9 -16.9°
Drops below altitude 10° 03:13:02 10° 114° (ESE) 1,452 -1.0 -16.6°
Sets 03:15:07 0° 114° (ESE) 2,309 0.1 -16.4°
